Weather History for ESOW - June, 2013

Change the Weather History Date:

Friday, June 28, 2013

  Actual Average Record
Temperature  
Mean Temperature 63 °F -  
Max Temperature 69 °F 66 °F 80 °F (2001)
Min Temperature 53 °F 50 °F 46 °F (2000)
Degree Days  
Heating Degree Days 2    
Growing Degree Days 13 (Base 50)    
Moisture  
Dew Point 53 °F    
Average Humidity 72    
Maximum Humidity 94    
Minimum Humidity 46    
Precipitation  
Precipitation 0.00 in - - ()
Sea Level Pressure  
Sea Level Pressure 30.06 in    
Wind  
Wind Speed 6 mph ()    
Max Wind Speed 12 mph    
Max Gust Speed -    
Visibility 6.2 miles    
Events      
Averages and records for this station are not official NWS values.
T = Trace of Precipitation, MM = Missing Value Source: Averaged Metar Reports

Daily Weather History Graph

Daily Weather History Graph

Search for Another Location

Airport or City:

Trip Planner

Search our weather history database for the weather conditions in past years. The results will help you decide how hot, cold, wet, or windy it might be!

Date:

Astronomy

Jun. 28, 2013 Rise Set
Actual Time 3:37 AM CEST 10:15 PM CEST
Civil Twilight 2:03 AM CEST 11:48 PM CEST
Nautical Twilight Sun does not rise Sun does not rise
Astronomical Twilight Sun does not rise Sun does not rise
Moon 11:45 PM CEST 11:07 AM CEST
Length of Visible Light 21h 45m
Length of Day
18h 38m
Waning Gibbous, 69% of the Moon is Illuminated
Jun 28
Waning Gibbous
Jun 30
Last Quarter
Jul 8
New
Jul 16
First Quarter
Jul 22
Full

Hourly Weather History & Observations

Time (CEST) Temp. Dew Point Humidity Pressure Visibility Wind Dir Wind Speed Gust Speed Precip Events Conditions
12:20 AM 59.0 °F 57.2 °F 94% 30.04 in 6.2 mi Calm Calm - N/A   Overcast
12:50 AM 59.0 °F 57.2 °F 94% 30.04 in 6.2 mi East 2.3 mph - N/A   Overcast
1:20 AM 59.0 °F 57.2 °F 94% 30.04 in 6.2 mi SSE 2.3 mph - N/A   Overcast
1:50 AM 59.0 °F 57.2 °F 94% 30.04 in 6.2 mi South 3.5 mph - N/A   Mostly Cloudy
2:20 AM 59.0 °F 57.2 °F 94% 30.04 in 6.2 mi SSW 4.6 mph - N/A   Scattered Clouds
2:50 AM 59.0 °F 57.2 °F 94% 30.04 in 6.2 mi SSW 6.9 mph - N/A   Overcast
3:20 AM 59.0 °F 57.2 °F 94% 30.04 in 6.2 mi SSW 6.9 mph - N/A   Light Drizzle
3:50 AM 59.0 °F 57.2 °F 94% 30.04 in 6.2 mi WSW 5.8 mph - N/A   Overcast
4:20 AM 59.0 °F 57.2 °F 94% 30.06 in 6.2 mi WSW 5.8 mph - N/A   Mostly Cloudy
4:50 AM 59.0 °F 57.2 °F 94% 30.06 in 6.2 mi West 5.8 mph - N/A   Mostly Cloudy
5:20 AM 59.0 °F 55.4 °F 88% 30.06 in 6.2 mi WSW 5.8 mph - N/A   Overcast
5:50 AM 59.0 °F 57.2 °F 94% 30.06 in 6.2 mi SW 4.6 mph - N/A   Mostly Cloudy
6:20 AM 59.0 °F 55.4 °F 88% 30.06 in 6.2 mi SW 8.1 mph - N/A   Scattered Clouds
6:50 AM 59.0 °F 55.4 °F 88% 30.09 in 6.2 mi SW 8.1 mph - N/A   Partly Cloudy
7:20 AM 60.8 °F 57.2 °F 88% 30.06 in 6.2 mi SW 11.5 mph - N/A   Scattered Clouds
7:50 AM 60.8 °F 55.4 °F 82% 30.09 in 6.2 mi SW 10.4 mph - N/A   Scattered Clouds
8:20 AM 60.8 °F 57.2 °F 88% 30.09 in 6.2 mi SW 8.1 mph - N/A   Scattered Clouds
8:50 AM 62.6 °F 55.4 °F 77% 30.09 in 6.2 mi SW 10.4 mph - N/A   Scattered Clouds
9:20 AM 62.6 °F 55.4 °F 77% 30.09 in 6.2 mi SW 10.4 mph - N/A   Partly Cloudy
9:50 AM 62.6 °F 55.4 °F 77% 30.09 in 6.2 mi SSW 11.5 mph - N/A   Partly Cloudy
10:20 AM 64.4 °F 53.6 °F 68% 30.09 in 6.2 mi SW 10.4 mph - N/A   Partly Cloudy
10:50 AM 64.4 °F 53.6 °F 68% 30.09 in 6.2 mi SW 8.1 mph - N/A   Scattered Clouds
11:20 AM 64.4 °F 53.6 °F 68% 30.09 in 6.2 mi SSW 9.2 mph - N/A   Partly Cloudy
11:50 AM 64.4 °F 53.6 °F 68% 30.09 in 6.2 mi SW 10.4 mph - N/A   Partly Cloudy
12:20 PM 66.2 °F 50.0 °F 56% 30.09 in 6.2 mi SW 11.5 mph - N/A   Partly Cloudy
12:50 PM 66.2 °F 48.2 °F 52% 30.09 in 6.2 mi SW 10.4 mph - N/A   Partly Cloudy
1:20 PM 66.2 °F 48.2 °F 52% 30.09 in 6.2 mi SW 10.4 mph - N/A   Partly Cloudy
1:50 PM 68.0 °F 50.0 °F 52% 30.09 in - SSW 9.2 mph - N/A   Clear
2:20 PM 66.2 °F 46.4 °F 49% 30.09 in - SW 10.4 mph - N/A   Clear
2:50 PM 68.0 °F 48.2 °F 49% 30.09 in - SW 8.1 mph - N/A   Clear
3:20 PM 68.0 °F 48.2 °F 49% 30.09 in - SW 8.1 mph - N/A   Clear
3:50 PM 68.0 °F 48.2 °F 49% 30.06 in - SW 6.9 mph - N/A   Clear
4:20 PM 69.8 °F 50.0 °F 49% 30.06 in - SSW 4.6 mph - N/A   Clear
4:50 PM 69.8 °F 50.0 °F 49% 30.06 in - South 6.9 mph - N/A   Clear
5:20 PM 68.0 °F 46.4 °F 46% 30.06 in - SW 9.2 mph - N/A   Clear
5:50 PM 68.0 °F 48.2 °F 49% 30.04 in - SSW 6.9 mph - N/A   Clear
6:20 PM 68.0 °F 48.2 °F 49% 30.04 in - SSW 8.1 mph - N/A   Clear
6:50 PM 68.0 °F 48.2 °F 49% 30.04 in - WSW 6.9 mph - N/A   Clear
7:20 PM 66.2 °F 48.2 °F 52% 30.04 in - SW 5.8 mph - N/A   Clear
7:50 PM 66.2 °F 50.0 °F 56% 30.01 in - SW 4.6 mph - N/A   Clear
8:20 PM 66.2 °F 51.8 °F 60% 30.01 in - SW 2.3 mph - N/A   Clear
8:50 PM 64.4 °F 51.8 °F 64% 30.01 in - South 8.1 mph - N/A   Clear
9:20 PM 62.6 °F 51.8 °F 68% 30.01 in - SSE 5.8 mph - N/A   Clear
9:50 PM 60.8 °F 51.8 °F 72% 30.01 in - South 5.8 mph - N/A   Clear
10:20 PM 59.0 °F 51.8 °F 77% 30.01 in - SSE 5.8 mph - N/A   Clear
10:50 PM 57.2 °F 51.8 °F 82% 30.01 in 6.2 mi South 5.8 mph - N/A   Unknown
11:20 PM 57.2 °F 50.0 °F 77% 30.01 in 6.2 mi South 5.8 mph - N/A   Unknown
11:50 PM 53.6 °F 50.0 °F 88% 30.01 in 6.2 mi SSE 2.3 mph - N/A   Scattered Clouds